FW3835 Weather Reports


time (UTC)temp
F
wind
direction
speed
knots
gust
knots
rain 1hr
in
rain 24hr
in
rain mn
in
humidity
%
barometer
mb
20260906200031 82 105 3.5 7.8 0.00 0.00 0.00 65 1016.1
20260906194513 83 101 2.6 7.8 0.00 0.00 0.00 63 1016.1
20260906193020 82 177 1.7 6.1 0.00 0.01 0.00 64 1016.3
20260906191527 82 101 2.6 8.7 0.00 0.03 0.00 66 1016.4
20260906190030 81 142 2.6 8.7 0.00 0.03 0.00 66 1016.4
20260906184533 81 96 2.6 7.8 0.00 0.05 0.00 66 1016.6
20260906183024 81 186 1.7 7.0 0.00 0.05 0.00 68 1016.7
20260906181524 81 71 2.6 8.7 0.00 0.05 0.00 67 1016.9
20260906180031 80 163 0.9 4.3 0.00 0.05 0.00 67 1017.1
20260906174529 80 68 0.9 6.1 0.00 0.05 0.00 69 1017.3
20260906173037 79 111 1.7 5.2 0.00 0.05 0.00 69 1017.5
20260906171518 79 178 0.9 7.8 0.00 0.05 0.00 71 1017.8
20260906170024 78 71 2.6 7.0 0.00 0.05 0.00 71 1018.1
20260906164528 77 74 0.9 6.1 0.00 0.05 0.00 71 1018.1
20260906163031 77 32 0.9 6.1 0.00 0.05 0.00 71 1018.2
20260906161536 76 128 2.6 7.0 0.00 0.05 0.00 71 1018.3
20260906160024 76 94 2.6 7.8 0.00 0.05 0.00 72 1018.3
20260906154528 76 115 0.0 7.8 0.00 0.05 0.00 73 1018.2
20260906153033 75 123 0.9 4.3 0.00 0.05 0.00 73 1018.2
20260906151534 74 167 1.7 6.1 0.00 0.05 0.00 74 1018.3
20260906150031 73 156 0.9 7.8 0.00 0.05 0.00 76 1018.4
20260906144528 73 172 0.9 6.1 0.00 0.05 0.00 77 1018.4
20260906143031 70 111 1.7 5.2 0.00 0.05 0.00 80 1018.4
20260906141529 69 121 1.7 6.1 0.00 0.05 0.00 80 1018.4
20260906140037 68 113 1.7 7.0 0.00 0.05 0.00 81 1018.6
20260906134536 68 117 1.7 6.1 0.00 0.05 0.00 82 1018.6
20260906133026 67 89 2.6 6.1 0.00 0.05 0.00 82 1018.8
20260906131530 67 101 0.9 3.5 0.00 0.05 0.00 82 1018.6
20260906130037 66 92 1.7 5.2 0.00 0.05 0.00 82 1018.4
20260906124538 65 94 1.7 6.1 0.00 0.05 0.00 82 1018.4
20260906123033 65 103 0.9 3.5 0.00 0.05 0.00 82 1018.4
20260906121529 65 96 2.6 7.0 0.00 0.05 0.00 82 1018.2
20260906120030 64 98 0.0 5.2 0.00 0.05 0.00 82 1018.1
20260906114517 64 98 0.9 5.2 0.00 0.05 0.00 82 1018.1
20260906113023 64 113 1.7 3.5 0.00 0.05 0.00 82 1018.2
20260906111504 64 119 0.9 6.1 0.00 0.05 0.00 82 1018.2
20260906110006 64 103 1.7 6.1 0.00 0.05 0.00 82 1018.1
20260906104509 64 120 1.7 5.2 0.00 0.05 0.00 82 1018.1
20260906103018 64 126 1.7 5.2 0.00 0.05 0.00 82 1018.0
20260906101528 64 134 0.9 4.3 0.00 0.05 0.00 82 1018.0
20260906100004 64 134 1.7 3.5 0.00 0.05 0.00 81 1017.8
20260906094515 64 134 0.0 2.6 0.00 0.05 0.00 81 1017.8
20260906093028 64 154 0.9 2.6 0.00 0.05 0.00 81 1017.4
20260906091521 64 155 0.0 2.6 0.00 0.05 0.00 81 1017.6
20260906090028 65 155 0.0 4.3 0.00 0.05 0.00 81 1017.6
20260906084513 65 86 2.6 6.1 0.00 0.05 0.00 81 1017.2
20260906083010 65 62 1.7 5.2 0.00 0.05 0.00 81 1017.0
20260906081520 65 132 3.5 13.0 0.00 0.05 0.00 81 1016.0
20260906080027 65 103 1.7 5.2 0.00 0.05 0.00 81 1017.5
20260906074530 65 105 0.9 5.2 0.00 0.05 0.00 81 1017.9
20260906073008 64 110 1.7 6.1 0.00 0.05 0.00 81 1017.8
20260906071510 64 155 0.9 4.3 0.00 0.05 0.00 81 1018.1
20260906070018 64 105 1.7 7.0 0.00 0.05 0.00 81 1018.2
20260906064533 65 103 2.6 6.1 0.00 0.05 0.00 81 1018.1
20260906063027 65 132 0.9 2.6 0.00 0.05 0.00 81 1018.3
20260906061509 65 133 1.7 7.0 0.00 0.05 0.00 80 1018.2
20260906060022 65 113 2.6 6.1 0.00 0.05 0.00 80 1018.2
20260906054520 65 90 0.9 5.2 0.00 0.05 0.00 80 1018.3
20260906053030 65 92 1.7 3.5 0.00 0.05 0.00 79 1018.3
20260906051532 65 89 1.7 5.2 0.00 0.05 0.00 78 1018.2
20260906050012 65 95 2.6 6.1 0.00 0.05 0.00 78 1018.1
20260906044520 66 139 2.6 6.1 0.00 0.05 0.05 78 1018.0
20260906043026 66 142 1.7 5.2 0.00 0.05 0.05 78 1018.2
20260906041538 66 142 0.9 7.0 0.00 0.05 0.05 78 1018.4
20260906040033 66 132 0.9 5.2 0.00 0.05 0.05 77 1018.7
20260906034525 66 155 0.9 5.2 0.00 0.05 0.05 77 1018.6
20260906033025 66 171 0.9 7.0 0.00 0.05 0.05 76 1018.6
20260906031524 66 120 0.9 2.6 0.00 0.05 0.05 75 1018.5
20260906030031 66 121 1.7 8.7 0.00 0.05 0.05 75 1018.4
20260906024532 66 100 2.6 7.8 0.00 0.05 0.05 75 1018.1
20260906023017 67 92 2.6 7.8 0.00 0.05 0.05 75 1017.9
20260906021519 67 102 2.6 7.0 0.00 0.05 0.05 75 1017.8
20260906020026 66 91 3.5 8.7 0.00 0.05 0.05 75 1017.9
20260906014534 67 101 3.5 10.4 0.00 0.05 0.05 75 1017.2
20260906013033 67 144 0.9 6.1 0.00 0.05 0.05 74 1017.3
20260906011516 67 99 1.7 7.0 0.00 0.05 0.05 74 1017.3
20260906010026 68 119 1.7 5.2 0.00 0.05 0.05 73 1017.2
20260906004531 69 130 3.5 9.6 0.00 0.05 0.05 72 1016.6
20260906003032 69 97 3.5 7.8 0.00 0.05 0.05 71 1016.5
20260906001534 70 147 3.5 7.8 0.00 0.05 0.05 71 1015.9
20260906000024 71 130 3.5 7.8 0.00 0.05 0.05 70 1015.6
20260905234527 71 98 2.6 9.6 0.00 0.05 0.05 70 1015.7
20260905233030 72 140 4.3 11.3 0.00 0.05 0.05 69 1015.5
20260905231531 72 98 2.6 9.6 0.00 0.05 0.05 69 1015.5
20260905230032 74 117 2.6 8.7 0.00 0.05 0.05 67 1015.7
20260905224525 75 97 1.7 5.2 0.00 0.05 0.05 66 1015.7
20260905223031 76 88 1.7 5.2 0.00 0.05 0.05 65 1015.3
20260905221538 76 175 0.9 5.2 0.00 0.05 0.05 67 1015.1
20260905220033 74 169 0.9 7.8 0.00 0.05 0.05 68 1015.2
20260905214536 74 155 0.9 7.8 0.00 0.05 0.05 69 1015.5
20260905213033 74 83 1.7 8.7 0.00 0.05 0.05 70 1015.7
20260905211532 74 126 1.7 5.2 0.00 0.05 0.05 68 1016.0
20260905210034 74 153 1.7 4.3 0.00 0.05 0.05 69 1015.9
20260905204535 73 70 2.6 11.3 0.00 0.05 0.05 71 1016.3
20260905203024 71 105 5.2 11.3 0.01 0.05 0.05 72 1016.3
20260905201528 71 78 1.7 7.8 0.03 0.05 0.05 75 1016.8